"2016-03-31 00:00:00",1504731,16.44,56.35,6.564,1.461,6.298,99.25195,-2.606,-1.266,89.2,0,109.6,13.4,-1.86,18.3
"2016-03-31 00:00:30",1504732,16.52,53.57,7.318,1.95,6.045,99.25195,-2.606,-1.301,89.3,0,109.6,13.4,-1.86,15.6
"2016-03-31 00:01:00",1504733,13.37,46.27,6.495,1.983,6.057,99.25195,-2.606,-1.31,89.5,0,109.6,13.4,-1.86,8.3
"2016-03-31 00:01:30",1504734,14.99,46.79,7.309,2.088,6.176,99.25195,-2.606,-1.327,89.7,0,109.6,13.4,-1.86,8.8
"2016-03-31 00:02:00",1504735,15.99,49.82,7.537,2.166,5.94,99.25195,-2.606,-1.352,89.8,0,109.6,13.4,-1.86,11.8
"2016-03-31 00:02:30",1504736,16.53,50.31,7.334,2.01,6.271,99.2409,-2.634,-1.325,90,0,109.6,13.4,-1.89,12.3
"2016-03-31 00:03:00",1504737,16.39,47.26,6.803,2.942,6.16,99.2239,-2.678,-1.329,90.1,0,109.6,13.4,-1.93,9.3
"2016-03-31 00:03:30",1504738,14.31,46.12,6.501,1.985,6.039,99.21795,-2.693,-1.364,90.1,0,109.6,13.4,-1.95,8.1
"2016-03-31 00:04:00",1504739,15.01,47.3,7.739,2.224,5.803,99.21824,-2.692,-1.367,90.2,0,109.6,13.4,-1.95,9.3
"2016-03-31 00:04:30",1504740,15.06,48.82,6.416,1.572,5.87,99.21851,-2.691,-1.397,90.3,0,109.6,13.41,-1.95,10.8
"2016-03-31 00:05:00",1504741,14.89,46.48,6.289,2.082,6.097,99.20944,-2.714,-1.42,90.4,0,109.5,13.41,-1.97,8.5
"2016-03-31 00:05:30",1504742,15.89,46.63,7.4,3.109,6.076,99.18564,-2.775,-1.411,90.4,0,109.5,13.41,-2.03,8.6
"2016-03-31 00:06:00",1504743,18.35,48.51,6.879,1.916,5.808,99.18507,-2.776,-1.477,90.3,0,109.6,13.41,-2.03,10.5
"2016-03-31 00:06:30",1504744,15.6,52.55,7.083,1.859,6.167,99.18222,-2.784,-1.521,90.3,0,109.5,13.41,-2.04,14.5
"2016-03-31 00:07:00",1504745,16.51,50.26,6.662,2.708,5.934,99.18563,-2.775,-1.508,90.4,0,109.6,13.41,-2.03,12.3
"2016-03-31 00:07:30",1504746,18.7,52.05,7.385,1.508,6.211,99.17685,-2.797,-1.52,90.5,0,109.6,13.41,-2.06,14.0
"2016-03-31 00:08:00",1504747,16.6,50.04,6.702,1.506,5.989,99.15559,-2.852,-1.516,90.5,0,109.6,13.41,-2.11,12.0
"2016-03-31 00:08:30",1504748,18.45,50.1,6.82,2.998,6.177,99.15332,-2.857,-1.569,90.4,0,109.6,13.41,-2.12,12.1
"2016-03-31 00:09:00",1504749,20.09,49.25,6.834,1.591,6.192,99.1564,-2.849,-1.621,90.3,0,109.5,13.41,-2.11,11.2
"2016-03-31 00:09:30",1504750,17.68,51.96,6.998,1.558,6.281,99.16062,-2.839,-1.619,90,0,109.6,13.41,-2.10,14.0
"2016-03-31 00:10:00",1504751,19.1,56.41,8.41,1.582,6.497,99.16596,-2.825,-1.64,89.9,0,109.5,13.41,-2.08,18.4
"2016-03-31 00:10:30",1504752,17.42,49.57,7.286,1.904,5.987,99.16568,-2.826,-1.628,89.8,0,109.5,13.41,-2.08,11.6
"2016-03-31 00:11:00",1504753,17.25,49.35,6.533,2.333,5.932,99.16961,-2.816,-1.638,89.6,0,109.5,13.41,-2.07,11.3
"2016-03-31 00:11:30",1504754,17.84,50.86,8.29,2.516,6.056,99.17017,-2.814,-1.648,89.6,0,109.5,13.41,-2.07,12.9
"2016-03-31 00:12:00",1504755,17.57,48.5,6.72,2.455,6.567,99.17102,-2.812,-1.626,89.5,0,109.5,13.41,-2.07,10.5
"2016-03-31 00:12:30",1504756,20.19,49.94,7,3.308,6.356,99.17159,-2.811,-1.632,89.1,0,109.5,13.41,-2.07,11.9
"2016-03-31 00:13:00",1504757,18.83,49.43,6.697,1.671,6.019,99.1761,-2.799,-1.631,88.8,0,109.5,13.42,-2.06,11.4
"2016-03-31 00:13:30",1504758,19.79,50.22,6.536,1.517,5.98,99.18745,-2.77,-1.662,88.6,0,109.5,13.42,-2.03,12.2
"2016-03-31 00:14:00",1504759,19.92,49.43,6.694,1.85,6.138,99.18942,-2.765,-1.622,88.6,0,109.5,13.42,-2.02,11.4
"2016-03-31 00:14:30",1504760,19.57,52.35,7.222,1.649,6.195,99.1914,-2.76,-1.612,88.3,0,109.5,13.42,-2.02,14.3
"2016-03-31 00:15:00",1504761,18.64,49.42,6.1,1.956,6.122,99.20358,-2.729,-1.584,88.2,0,109.5,13.42,-1.99,11.4
"2016-03-31 00:15:30",1504762,19.32,50.65,6.662,1.403,6.238,99.20812,-2.718,-1.602,88.2,0,109.5,13.42,-1.98,12.7
"2016-03-31 00:16:00",1504763,18.06,51.78,6.998,1.653,5.857,99.20869,-2.716,-1.595,88.3,0,109.5,13.42,-1.97,13.8
"2016-03-31 00:16:30",1504764,20.81,50.87,6.749,1.401,6.04,99.20499,-2.726,-1.584,88.3,0,109.5,13.41,-1.98,12.9
"2016-03-31 00:17:00",1504765,18.53,51.68,6.846,1.853,6.391,99.1945,-2.752,-1.567,88.4,0,109.5,13.41,-2.01,13.7
"2016-03-31 00:17:30",1504766,18.97,50.26,7.284,3.166,5.87,99.19282,-2.757,-1.557,88.4,0,109.5,13.41,-2.01,12.3
"2016-03-31 00:18:00",1504767,19,51.88,7.486,2.241,6.036,99.19139,-2.76,-1.573,88.4,0,109.5,13.41,-2.02,13.9
"2016-03-31 00:18:30",1504768,20.23,51.88,7.732,1.224,6.347,99.186,-2.774,-1.567,88.5,0,109.5,13.41,-2.03,13.9
"2016-03-31 00:19:00",1504769,18.44,49.46,6.746,2.493,6.021,99.1809,-2.787,-1.574,88.6,0,109.5,13.41,-2.04,11.5
"2016-03-31 00:19:30",1504770,20.39,51.25,6.121,1.515,6.38,99.17524,-2.802,-1.584,88.7,0,109.5,13.41,-2.06,13.2
"2016-03-31 00:20:00",1504771,20.11,52.76,6.38,1.275,6.198,99.17692,-2.797,-1.551,88.6,0,109.5,13.41,-2.06,14.8
"2016-03-31 00:20:30",1504772,20.66,51.99,6.385,1.659,6.042,99.17833,-2.794,-1.606,88.6,0,109.5,13.41,-2.05,14.0
"2016-03-31 00:21:00",1504773,19.15,52.72,6.725,1.457,5.967,99.17748,-2.796,-1.618,88.7,0,109.6,13.42,-2.05,14.7
"2016-03-31 00:21:30",1504774,18.05,49.67,7.002,2.037,6.236,99.17636,-2.799,-1.584,88.8,0,109.5,13.42,-2.06,11.7
"2016-03-31 00:22:00",1504775,18.01,52.51,6.689,1.599,6.327,99.17748,-2.796,-1.598,88.9,0,109.5,13.42,-2.05,14.5
"2016-03-31 00:22:30",1504776,19.52,52.15,6.961,1.75,6.102,99.17917,-2.792,-1.594,89,0,109.5,13.42,-2.05,14.2
"2016-03-31 00:23:00",1504777,18.79,51.06,7.142,1.809,5.9,99.17805,-2.794,-1.603,89,0,109.5,13.42,-2.05,13.1
"2016-03-31 00:23:30",1504778,20.02,51.61,6.455,1.233,6.21,99.17152,-2.811,-1.617,89,0,109.5,13.42,-2.07,13.6
"2016-03-31 00:24:00",1504779,19.83,52.92,6.987,1.512,6.529,99.16667,-2.823,-1.63,89.1,0,109.5,13.42,-2.08,14.9
"2016-03-31 00:24:30",1504780,20.29,52.37,6.487,1.483,6.68,99.16527,-2.827,-1.617,89,0,109.5,13.42,-2.08,14.4
"2016-03-31 00:25:00",1504781,19.78,52.36,7.101,1.841,6.759,99.17405,-2.805,-1.622,88.8,0,109.5,13.42,-2.06,14.4
"2016-03-31 00:25:30",1504782,20.02,53.39,6.243,1.199,6.237,99.18282,-2.782,-1.652,88.5,0,109.5,13.42,-2.04,15.4
"2016-03-31 00:26:00",1504783,18.71,50.91,7.513,1.697,6.069,99.1899,-2.764,-1.683,88.2,0,109.5,13.42,-2.02,12.9
"2016-03-31 00:26:30",1504784,17.99,51.17,6.919,1.87,6.282,99.21542,-2.699,-1.614,88.1,0,109.5,13.42,-1.96,13.2
"2016-03-31 00:27:00",1504785,19.18,51.79,6.449,1.475,6.239,99.21684,-2.696,-1.582,88.2,0,109.5,13.42,-1.95,13.8
"2016-03-31 00:27:30",1504786,19.95,49.87,6.114,1.266,6.712,99.21768,-2.693,-1.591,88,0,109.5,13.42,-1.95,11.9
"2016-03-31 00:28:00",1504787,20.56,51.83,6.192,1.177,6.415,99.21768,-2.693,-1.557,87.5,0,109.5,13.42,-1.95,13.8
"2016-03-31 00:28:30",1504788,19.91,53.55,7.656,1.428,6.455,99.22024,-2.687,-1.585,87.1,0,109.5,13.42,-1.94,15.5
"2016-03-31 00:29:00",1504789,19.76,51.14,6.299,1.277,6.87,99.24688,-2.619,-1.579,86.8,0,109.5,13.42,-1.88,13.1
"2016-03-31 00:29:30",1504790,18.99,52.36,5.787,1.38,6.327,99.2517,-2.607,-1.537,86.5,0,109.5,13.42,-1.86,14.4
"2016-03-31 00:30:00",1504791,19,55.63,6.854,1.193,5.919,99.25255,-2.605,-1.509,86.3,0,109.5,13.42,-1.86,17.6
"2016-03-31 00:30:30",1504792,18.99,49.41,6.583,1.708,7.244,99.25368,-2.602,-1.512,86.2,0,109.5,13.42,-1.86,11.4
"2016-03-31 00:31:00",1504793,19.59,53.49,6.132,1.246,6.507,99.27267,-2.553,-1.486,85.6,0,109.5,13.42,-1.81,15.5
"2016-03-31 00:31:30",1504794,19.44,50.84,6.625,1.609,6.808,99.28571,-2.52,-1.463,85.1,0,109.5,13.42,-1.78,12.8
"2016-03-31 00:32:00",1504795,19.06,50.8,6.431,1.274,6.975,99.29676,-2.492,-1.438,84.5,0,109.5,13.42,-1.75,12.8
"2016-03-31 00:32:30",1504796,19.6,53.01,5.93,1.204,6.505,99.31944,-2.434,-1.428,83.6,0,109.5,13.42,-1.69,15.0
"2016-03-31 00:33:00",1504797,19.58,51.75,6.457,1.204,6.239,99.33389,-2.397,-1.412,83.2,0,109.5,13.42,-1.65,13.8
"2016-03-31 00:33:30",1504798,19.52,54.55,6.142,1.481,6.621,99.35289,-2.349,-1.309,83.5,0,109.5,13.41,-1.61,16.5
"2016-03-31 00:34:00",1504799,19.35,55.86,7.009,1.252,6.667,99.35346,-2.347,-1.284,83.6,0,109.5,13.41,-1.60,17.9
"2016-03-31 00:34:30",1504800,19.2,55.89,5.951,1.303,6.051,99.35261,-2.35,-1.276,83.7,0,109.5,13.41,-1.61,17.9
"2016-03-31 00:35:00",1504801,19.64,57.18,6.545,1.265,6.141,99.33787,-2.387,-1.245,83.9,0,109.5,13.41,-1.64,19.2
"2016-03-31 00:35:30",1504802,18.77,56.36,6.269,1.209,6.324,99.32256,-2.426,-1.284,83.8,0,109.5,13.41,-1.68,18.4
"2016-03-31 00:36:00",1504803,18.41,55.55,6.799,1.323,6.735,99.31972,-2.433,-1.269,83.6,0,109.5,13.41,-1.69,17.5
"2016-03-31 00:36:30",1504804,19.18,56.04,6.129,1.263,6.355,99.31944,-2.434,-1.266,83.6,0,109.5,13.41,-1.69,18.0
"2016-03-31 00:37:00",1504805,19.26,58.01,6.331,1.358,6.017,99.31972,-2.433,-1.244,83.9,0,109.5,13.41,-1.69,20.0
"2016-03-31 00:37:30",1504806,19.45,58.27,5.947,1.301,6.108,99.30867,-2.462,-1.28,84.2,0,109.5,13.41,-1.72,20.3
"2016-03-31 00:38:00",1504807,18.97,56.01,6.319,1.254,6.092,99.29025,-2.508,-1.283,84.5,0,109.5,13.41,-1.77,18.0
"2016-03-31 00:38:30",1504808,18.75,55.41,6.401,1.24,6.485,99.28571,-2.52,-1.296,84.7,0,109.5,13.42,-1.78,17.4
"2016-03-31 00:39:00",1504809,18.73,55.59,6.089,1.304,6.175,99.26814,-2.565,-1.301,84.7,0,109.5,13.42,-1.82,17.6
"2016-03-31 00:39:30",1504810,18.86,59.08,6.789,1.413,6.139,99.26218,-2.58,-1.32,84.9,0,109.5,13.42,-1.84,21.1
"2016-03-31 00:40:00",1504811,18.72,56.03,6.498,1.346,6.101,99.25256,-2.605,-1.344,85.3,0,109.5,13.42,-1.86,18.0
"2016-03-31 00:40:30",1504812,18.77,55.72,6.605,1.206,6.07,99.2517,-2.607,-1.356,85.5,0,109.5,13.42,-1.86,17.7
"2016-03-31 00:41:00",1504813,18.6,56.04,7.058,1.413,6.461,99.24206,-2.631,-1.388,85.6,0,109.5,13.42,-1.89,18.0
"2016-03-31 00:41:30",1504814,17.62,53.57,6.575,1.467,5.883,99.23044,-2.661,-1.391,85.8,0,109.5,13.42,-1.92,15.6
"2016-03-31 00:42:00",1504815,18.13,56.97,5.994,1.299,6.115,99.21996,-2.688,-1.41,86,0,109.5,13.42,-1.95,19.0
"2016-03-31 00:42:30",1504816,17.6,54.51,7.019,1.325,6.286,99.21768,-2.693,-1.412,86.3,0,109.6,13.42,-1.95,16.5
"2016-03-31 00:43:00",1504817,16.94,56.47,6.546,1.356,6.061,99.21741,-2.694,-1.424,86.5,0,109.5,13.42,-1.95,18.5
"2016-03-31 00:43:30",1504818,16.38,52.55,6.829,1.515,6.546,99.21768,-2.693,-1.449,86.8,0,109.5,13.42,-1.95,14.5
"2016-03-31 00:44:00",1504819,17.18,54.18,6.137,1.277,6.171,99.2174,-2.694,-1.448,86.9,0,109.5,13.42,-1.95,16.2
"2016-03-31 00:44:30",1504820,17.21,52.73,6.015,1.255,6.027,99.21059,-2.711,-1.472,87,0,109.5,13.42,-1.97,14.7
"2016-03-31 00:45:00",1504821,16.82,50.79,6.689,1.255,6.222,99.20097,-2.736,-1.491,87.1,0,109.5,13.42,-1.99,12.8
"2016-03-31 00:45:30",1504822,16.39,49.19,6.252,1.582,6.817,99.19926,-2.74,-1.483,87.1,0,109.5,13.42,-2.00,11.2
"2016-03-31 00:46:00",1504823,16.87,51.1,6.804,1.183,6.657,99.21315,-2.705,-1.492,87,0,109.5,13.42,-1.96,13.1
"2016-03-31 00:46:30",1504824,16.09,50.31,6.52,1.376,6.413,99.21768,-2.693,-1.496,87,0,109.5,13.42,-1.95,12.3
"2016-03-31 00:47:00",1504825,16.36,51.11,5.896,1.354,6.015,99.21741,-2.694,-1.481,87,0,109.5,13.42,-1.95,13.1
"2016-03-31 00:47:30",1504826,16.26,50.05,6.121,1.358,6.227,99.21967,-2.688,-1.488,87,0,109.5,13.42,-1.95,12.0
"2016-03-31 00:48:00",1504827,16.73,49.88,6.562,1.443,6.645,99.23129,-2.659,-1.481,87,0,109.5,13.42,-1.92,11.9
"2016-03-31 00:48:30",1504828,15.54,49.22,6.476,1.589,6.622,99.24972,-2.612,-1.479,86.9,0,109.5,13.42,-1.87,11.2
"2016-03-31 00:49:00",1504829,16.57,51.87,5.965,1.326,6.39,99.25142,-2.607,-1.433,86.8,0,109.5,13.42,-1.86,13.9
"2016-03-31 00:49:30",1504830,16.58,51.87,6.079,1.279,6.225,99.25651,-2.594,-1.451,86.8,0,109.5,13.42,-1.85,13.9
"2016-03-31 00:50:00",1504831,16.74,49.06,6.803,1.576,6.227,99.26587,-2.571,-1.434,86.8,0,109.5,13.41,-1.83,11.1
"2016-03-31 00:50:30",1504832,17.17,50.08,6.532,1.239,6.882,99.27834,-2.539,-1.412,86.7,0,109.5,13.41,-1.80,12.1
"2016-03-31 00:51:00",1504833,16.61,52.48,6.331,1.444,6.56,99.28571,-2.52,-1.395,86.5,0,109.6,13.41,-1.78,14.5
"2016-03-31 00:51:30",1504834,16.3,52.95,5.805,1.245,6.48,99.28826,-2.514,-1.394,86.4,0,109.5,13.41,-1.77,15.0
"2016-03-31 00:52:00",1504835,16.1,52.77,6.192,1.167,6.44,99.29989,-2.484,-1.37,86.5,0,109.5,13.41,-1.74,14.8
"2016-03-31 00:52:30",1504836,16.3,52.22,6.531,1.302,6.233,99.30299,-2.476,-1.329,86.5,0,109.5,13.41,-1.73,14.2
"2016-03-31 00:53:00",1504837,16.01,51.86,6.627,1.318,6.683,99.30299,-2.476,-1.348,86.6,0,109.5,13.41,-1.73,13.9
"2016-03-31 00:53:30",1504838,16.33,52.67,6.027,1.197,6.492,99.30555,-2.47,-1.31,86.6,0,109.5,13.41,-1.73,14.7
"2016-03-31 00:54:00",1504839,16.37,50.89,6.565,1.355,6.184,99.30612,-2.468,-1.319,86.6,0,109.5,13.41,-1.72,12.9
"2016-03-31 00:54:30",1504840,16.14,52.93,6.396,1.189,6.473,99.31377,-2.449,-1.337,86.5,0,109.5,13.41,-1.71,14.9
"2016-03-31 00:55:00",1504841,16.5,51.19,6.063,1.351,6.423,99.31774,-2.438,-1.296,86.5,0,109.5,13.42,-1.70,13.2
"2016-03-31 00:55:30",1504842,16.31,51.61,7.655,1.469,6.55,99.31689,-2.441,-1.301,86.4,0,109.5,13.42,-1.70,13.6
"2016-03-31 00:56:00",1504843,16.56,52.93,6.48,1.565,6.557,99.31916,-2.435,-1.272,86.4,0,109.5,13.42,-1.69,14.9
"2016-03-31 00:56:30",1504844,16.85,53.33,6.315,1.486,6.377,99.31972,-2.433,-1.283,86.3,0,109.5,13.42,-1.69,15.3
"2016-03-31 00:57:00",1504845,16.73,50.57,6.439,1.266,6.106,99.31972,-2.433,-1.296,86.2,0,109.5,13.42,-1.69,12.6
"2016-03-31 00:57:30",1504846,16.34,52.93,6.611,1.299,6.63,99.31972,-2.433,-1.255,86.3,0,109.5,13.42,-1.69,14.9
"2016-03-31 00:58:00",1504847,16.85,57.09,7.078,1.438,6.653,99.31972,-2.433,-1.278,86.4,0,109.5,13.42,-1.69,19.1
"2016-03-31 00:58:30",1504848,16.52,53.92,6.45,1.426,6.418,99.31944,-2.434,-1.268,86.5,0,109.5,13.42,-1.69,15.9
"2016-03-31 00:59:00",1504849,16.39,53.56,6.663,1.227,6.219,99.31972,-2.433,-1.272,86.5,0,109.5,13.42,-1.69,15.6
"2016-03-31 00:59:30",1504850,17.04,54.23,7.717,1.518,6.313,99.31888,-2.436,-1.283,86.5,0,109.5,13.42,-1.69,16.2
"2016-03-31 01:00:00",1504851,15.96,50.49,7.208,1.597,6.602,99.31944,-2.434,-1.279,86.5,0,109.5,13.42,-1.69,12.5
"2016-03-31 01:00:30",1504852,16.97,51.39,6.355,1.513,6.527,99.31916,-2.435,-1.267,86.6,0,109.5,13.42,-1.69,13.4
"2016-03-31 01:01:00",1504853,17.59,54.08,7.093,1.246,6.664,99.31944,-2.434,-1.244,86.7,0,109.5,13.42,-1.69,16.1
"2016-03-31 01:01:30",1504854,15.83,56.36,7.277,1.436,6.366,99.31944,-2.434,-1.262,86.6,0,109.5,13.42,-1.69,18.4
"2016-03-31 01:02:00",1504855,16.35,55.15,7.07,1.46,6.323,99.31972,-2.433,-1.271,86.7,0,109.5,13.42,-1.69,17.2
"2016-03-31 01:02:30",1504856,15.07,55.62,8.89,1.45,6.495,99.31944,-2.434,-1.284,86.7,0,109.5,13.42,-1.69,17.6
"2016-03-31 01:03:00",1504857,14.45,57.9,6.303,1.289,6.428,99.3186,-2.436,-1.267,86.7,0,109.4,13.42,-1.69,19.9
"2016-03-31 01:03:30",1504858,16.5,53.21,7.291,1.329,6.505,99.3186,-2.436,-1.261,86.7,0,109.5,13.42,-1.69,15.2
"2016-03-31 01:04:00",1504859,16.85,55.57,6.956,1.246,6.354,99.3186,-2.436,-1.269,86.6,0,109.5,13.42,-1.69,17.6
"2016-03-31 01:04:30",1504860,16.6,57.07,7.033,1.365,6.223,99.31831,-2.437,-1.269,86.5,0,109.5,13.42,-1.69,19.1
"2016-03-31 01:05:00",1504861,15.68,53.11,6.497,1.428,6.656,99.31747,-2.439,-1.264,86.5,0,109.5,13.42,-1.70,15.1
"2016-03-31 01:05:30",1504862,17.25,50.46,6.244,1.324,6.694,99.31831,-2.437,-1.284,86.4,0,109.5,13.42,-1.69,12.5
"2016-03-31 01:06:00",1504863,17.38,54.51,6.323,1.299,6.437,99.3186,-2.436,-1.27,85.9,0,109.5,13.42,-1.69,16.5
"2016-03-31 01:06:30",1504864,17.76,53.55,6.063,1.156,6.661,99.3186,-2.436,-1.286,85.8,0,109.6,13.41,-1.69,15.5
"2016-03-31 01:07:00",1504865,16.95,54.32,6.693,1.341,6.401,99.3186,-2.436,-1.272,85.5,0,109.5,13.41,-1.69,16.3
"2016-03-31 01:07:30",1504866,17.69,52.61,6.455,1.251,6.854,99.32114,-2.43,-1.275,85.4,0,109.5,13.41,-1.69,14.6
"2016-03-31 01:08:00",1504867,16.93,51.91,6.336,1.29,6.821,99.3203,-2.432,-1.243,85.2,0,109.5,13.41,-1.69,13.9
"2016-03-31 01:08:30",1504868,17.7,55.12,6.648,1.263,6.419,99.33078,-2.405,-1.252,84.8,0,109.5,13.41,-1.66,17.1
"2016-03-31 01:09:00",1504869,17.69,51.2,6.537,1.17,6.665,99.34353,-2.373,-1.267,84.6,0,109.4,13.41,-1.63,13.2
"2016-03-31 01:09:30",1504870,16.81,53.51,6.777,1.447,6.615,99.35262,-2.35,-1.234,84.3,0,109.5,13.41,-1.61,15.5
"2016-03-31 01:10:00",1504871,17.7,52.55,6.6,1.261,6.978,99.35317,-2.348,-1.236,84.3,0,109.5,13.41,-1.60,14.5
"2016-03-31 01:10:30",1504872,17.47,53.2,7.107,1.327,6.665,99.35374,-2.347,-1.196,84.3,0,109.5,13.41,-1.60,15.2
"2016-03-31 01:11:00",1504873,16.79,54.21,6.58,1.52,6.207,99.35459,-2.345,-1.187,84.2,0,109.5,13.41,-1.60,16.2
"2016-03-31 01:11:30",1504874,17.7,52.16,6.573,1.432,6.539,99.35545,-2.342,-1.185,84.3,0,109.5,13.41,-1.60,14.2
"2016-03-31 01:12:00",1504875,17.95,51.99,6.505,1.286,7.006,99.35487,-2.344,-1.203,84.2,0,109.5,13.42,-1.60,14.0
"2016-03-31 01:12:30",1504876,17.49,51.08,6.528,1.236,6.936,99.35855,-2.334,-1.186,83.8,0,109.5,13.42,-1.59,13.1
"2016-03-31 01:13:00",1504877,17.35,50.95,5.783,1.161,6.892,99.36961,-2.306,-1.162,83.4,0,109.5,13.42,-1.56,13.0
"2016-03-31 01:13:30",1504878,17.56,51.72,6.597,1.148,6.61,99.38464,-2.268,-1.152,82.9,0,109.5,13.42,-1.52,13.7
"2016-03-31 01:14:00",1504879,17.64,50.56,6.854,1.217,6.407,99.38747,-2.261,-1.176,82.6,0,109.5,13.42,-1.52,12.6
"2016-03-31 01:14:30",1504880,17.35,50.98,6.833,1.275,6.994,99.38804,-2.259,-1.141,82.5,0,109.5,13.42,-1.52,13.0
"2016-03-31 01:15:00",1504881,17.46,52.56,6.393,1.264,6.543,99.39597,-2.239,-1.118,82.4,0,109.5,13.42,-1.49,14.6
"2016-03-31 01:15:30",1504882,17.42,53.6,6.134,1.298,6.433,99.40163,-2.225,-1.106,82.8,0,109.5,13.42,-1.48,15.6
"2016-03-31 01:16:00",1504883,17.71,53.21,6.384,1.234,6.711,99.39796,-2.234,-1.08,83.1,0,109.5,13.42,-1.49,15.2
"2016-03-31 01:16:30",1504884,17.54,53.57,6.547,1.24,6.463,99.38945,-2.256,-1.061,83.3,0,109.5,13.42,-1.51,15.6
"2016-03-31 01:17:00",1504885,17.22,50.36,6.877,1.803,6.947,99.38775,-2.26,-1.114,83.3,0,109.5,13.42,-1.52,12.4
"2016-03-31 01:17:30",1504886,17.86,50.73,5.962,1.41,6.779,99.38775,-2.26,-1.082,82.8,0,109.5,13.42,-1.52,12.7
"2016-03-31 01:18:00",1504887,17.46,51.69,6.776,1.359,6.107,99.38775,-2.26,-1.082,82.5,0,109.5,13.42,-1.52,13.7
"2016-03-31 01:18:30",1504888,17.83,50.81,6.682,1.219,6.96,99.38775,-2.26,-1.101,82.5,0,109.5,13.42,-1.52,12.8
"2016-03-31 01:19:00",1504889,17.99,52.61,6.043,1.256,6.62,99.38775,-2.26,-1.089,82,0,109.5,13.42,-1.52,14.6
"2016-03-31 01:19:30",1504890,17.13,52.01,7.327,1.452,6.377,99.38747,-2.261,-1.104,82.3,0,109.5,13.42,-1.52,14.0
"2016-03-31 01:20:00",1504891,16.58,53.09,6.881,1.357,6.328,99.38747,-2.261,-1.075,82.9,0,109.5,13.42,-1.52,15.1
"2016-03-31 01:20:30",1504892,16.88,52.05,6.583,1.674,6.667,99.37925,-2.282,-1.069,83.3,0,109.5,13.42,-1.54,14.0
"2016-03-31 01:21:00",1504893,16.8,51.75,6.97,1.455,6.001,99.37074,-2.303,-1.09,83.3,0,109.6,13.42,-1.56,13.8
"2016-03-31 01:21:30",1504894,17.07,50.5,6.212,1.565,7.084,99.35885,-2.334,-1.087,83.5,0,109.5,13.42,-1.59,12.5
"2016-03-31 01:22:00",1504895,17.17,54.17,8.8,1.661,6.858,99.35374,-2.347,-1.124,83.1,0,109.5,13.42,-1.60,16.2
"2016-03-31 01:22:30",1504896,15.93,48.12,6.983,1.964,6.806,99.35374,-2.347,-1.145,82.7,0,109.5,13.42,-1.60,10.1
"2016-03-31 01:23:00",1504897,17.11,51.22,6.849,1.749,6.431,99.35601,-2.341,-1.145,82,0,109.5,13.42,-1.60,13.2
"2016-03-31 01:23:30",1504898,15.23,46.07,7.035,2.028,6.996,99.36451,-2.319,-1.173,81.7,0,109.5,13.41,-1.58,8.1
"2016-03-31 01:24:00",1504899,14.4,45.28,7.166,2.367,7.168,99.37981,-2.28,-1.179,80.6,0,109.5,13.41,-1.54,7.3
"2016-03-31 01:24:30",1504900,13.58,44.65,6.791,1.363,7.017,99.38917,-2.256,-1.143,79.74,0,109.5,13.41,-1.51,6.7
"2016-03-31 01:25:00",1504901,15.07,47.95,6.859,1.848,6.466,99.40646,-2.212,-1.091,79.77,0,109.5,13.41,-1.47,10.0
"2016-03-31 01:25:30",1504902,15.07,47.52,5.911,1.449,6.694,99.41865,-2.181,-1.075,80.4,0,109.5,13.41,-1.44,9.5
"2016-03-31 01:26:00",1504903,13.6,44.9,6.019,1.525,6.728,99.42176,-2.173,-1.05,79.96,0,109.5,13.41,-1.43,6.9
"2016-03-31 01:26:30",1504904,13.56,44.34,7.433,1.954,6.684,99.42829,-2.157,-1.064,79.65,0,109.5,13.41,-1.41,6.3
"2016-03-31 01:27:00",1504905,12.57,43.29,6.112,1.727,6.966,99.43395,-2.142,-1.027,79.42,0,109.5,13.41,-1.40,5.3
"2016-03-31 01:27:30",1504906,11.8,41.72,6.563,1.267,6.904,99.44019,-2.126,-1.001,78.74,0,109.5,13.41,-1.38,3.7
"2016-03-31 01:28:00",1504907,12.16,41.5,6.013,1.284,6.962,99.45436,-2.09,-1.019,77.76,0,109.5,13.41,-1.35,3.5
"2016-03-31 01:28:30",1504908,12.33,42.28,6.559,1.202,6.772,99.46088,-2.074,-0.977,76.79,0,109.5,13.42,-1.33,4.3
"2016-03-31 01:29:00",1504909,12.8,43.35,6.513,1.492,6.985,99.48611,-2.009,-0.979,76.47,0,109.5,13.42,-1.26,5.3
"2016-03-31 01:29:30",1504910,12.55,42.6,7.118,1.405,6.651,99.49348,-1.991,-0.941,76.32,0,109.5,13.42,-1.25,4.6
"2016-03-31 01:30:00",1504911,12.47,41.63,5.858,1.253,6.749,99.50793,-1.954,-0.887,76.13,0,109.5,13.42,-1.21,3.6
"2016-03-31 01:30:30",1504912,12.77,42.09,6.142,1.281,6.626,99.52353,-1.914,-0.856,75.92,0,109.5,13.42,-1.17,4.1
"2016-03-31 01:31:00",1504913,12.72,42.15,6.207,1.234,6.549,99.5238,-1.913,-0.827,76.35,0,109.5,13.42,-1.17,4.2
"2016-03-31 01:31:30",1504914,12.48,40.48,6.523,1.273,6.851,99.52806,-1.903,-0.812,76.73,0,109.5,13.42,-1.16,2.5
"2016-03-31 01:32:00",1504915,12.53,39.89,6.64,1.15,6.954,99.52834,-1.902,-0.777,76.34,0,109.5,13.42,-1.16,1.9
"2016-03-31 01:32:30",1504916,12.09,40.43,6.314,1.248,6.5,99.5377,-1.878,-0.782,75.78,0,109.5,13.42,-1.13,2.4
"2016-03-31 01:33:00",1504917,12.56,38.88,6.061,1.324,6.768,99.54053,-1.871,-0.772,75.55,0,109.5,13.42,-1.13,0.9
"2016-03-31 01:33:30",1504918,12.21,39.68,6.497,1.366,7.198,99.54337,-1.864,-0.757,74.75,0,109.5,13.42,-1.12,1.7
"2016-03-31 01:34:00",1504919,12.78,41.35,6.381,1.269,7.21,99.55697,-1.829,-0.757,73.33,0,109.5,13.42,-1.08,3.3
"2016-03-31 01:34:30",1504920,12.25,41.39,6.447,1.458,6.706,99.55895,-1.824,-0.721,73.34,0,109.5,13.42,-1.08,3.4
"2016-03-31 01:35:00",1504921,12.01,39.87,6.659,1.194,6.642,99.56604,-1.806,-0.692,73.55,0,109.5,13.42,-1.06,1.9
"2016-03-31 01:35:30",1504922,12.22,39.73,6.241,1.173,6.752,99.57369,-1.786,-0.686,73.02,0,109.5,13.42,-1.04,1.7
"2016-03-31 01:36:00",1504923,11.84,40.1,6.286,1.256,7.213,99.58163,-1.766,-0.679,72.05,0,109.5,13.42,-1.02,2.1
"2016-03-31 01:36:30",1504924,11.43,41.1,6.301,1.274,7.011,99.59183,-1.74,-0.668,71.52,0,109.5,13.42,-0.99,3.1
"2016-03-31 01:37:00",1504925,11.47,43.11,5.983,1.204,6.745,99.59183,-1.74,-0.617,71.92,0,109.5,13.42,-0.99,5.1
"2016-03-31 01:37:30",1504926,11.32,42.39,6.074,1.201,6.687,99.59467,-1.733,-0.587,72.09,0,109.5,13.42,-0.99,4.4
"2016-03-31 01:38:00",1504927,11.43,41.62,6.94,1.278,6.549,99.60289,-1.712,-0.618,71.6,0,109.5,13.42,-0.97,3.6
"2016-03-31 01:38:30",1504928,11.03,42.01,6.428,1.325,7.059,99.61281,-1.687,-0.594,71.24,0,109.5,13.42,-0.94,4.0
"2016-03-31 01:39:00",1504929,11.37,43.73,6.005,1.167,6.778,99.62527,-1.655,-0.575,71.05,0,109.5,13.42,-0.91,5.7
"2016-03-31 01:39:30",1504930,11.47,44.41,5.958,1.318,6.652,99.62556,-1.654,-0.555,71.25,0,109.5,13.42,-0.91,6.4
"2016-03-31 01:40:00",1504931,11.82,44.61,6.285,1.281,6.762,99.62585,-1.653,-0.527,71.41,0,109.5,13.41,-0.91,6.6
"2016-03-31 01:40:30",1504932,12.15,44.83,6.091,1.25,6.39,99.62556,-1.654,-0.508,71.68,0,109.5,13.41,-0.91,6.8
"2016-03-31 01:41:00",1504933,12.57,44.89,6.714,1.478,6.804,99.62443,-1.657,-0.548,72.1,0,109.5,13.41,-0.91,6.9
"2016-03-31 01:41:30",1504934,12.54,45.57,6.197,1.317,6.656,99.62472,-1.656,-0.497,72.49,0,109.5,13.41,-0.91,7.6
"2016-03-31 01:42:00",1504935,11.94,45.12,6.744,1.34,6.368,99.61819,-1.673,-0.498,72.42,0,109.5,13.41,-0.93,7.1
"2016-03-31 01:42:30",1504936,12.33,44.85,6.502,1.174,6.815,99.60828,-1.698,-0.511,72.26,0,109.5,13.41,-0.95,6.8
"2016-03-31 01:43:00",1504937,12.26,46.15,5.903,1.237,6.724,99.60091,-1.717,-0.522,72.29,0,109.5,13.41,-0.97,8.2
"2016-03-31 01:43:30",1504938,11.88,43.77,6.424,1.341,6.777,99.59184,-1.74,-0.547,72.21,0,109.5,13.41,-0.99,5.8
"2016-03-31 01:44:00",1504939,12.96,46.22,6.224,1.517,6.76,99.59156,-1.741,-0.534,72.13,0,109.5,13.41,-0.99,8.2
"2016-03-31 01:44:30",1504940,13.02,47.16,5.861,1.291,6.67,99.59013,-1.744,-0.53,72.4,0,109.5,13.41,-1.00,9.2
"2016-03-31 01:45:00",1504941,12.78,45.63,6.576,1.429,6.447,99.59013,-1.744,-0.556,72.54,0,109.5,13.41,-1.00,7.6
"2016-03-31 01:45:30",1504942,13.37,47.17,6.237,1.366,7.1,99.58985,-1.745,-0.519,72.48,0,109.5,13.41,-1.00,9.2
"2016-03-31 01:46:00",1504943,13.55,47.13,6.287,1.329,7.016,99.58985,-1.745,-0.541,72.41,0,109.5,13.41,-1.00,9.1
"2016-03-31 01:46:30",1504944,13.94,47.28,6.525,1.244,6.705,99.58816,-1.749,-0.556,72.6,0,109.5,13.41,-1.00,9.3